www.pogodaiklimat.ru

Погода и климат >> Архив погоды >> Россия >> Красноярский край >> Агинское


ПОГОДА в Агинском

  • Прогноз погоды в Агинском
  • Монитор погоды в Агинском

АРХИВ ПОГОДЫ в Агинском

Время (UTC), дата Ветер
(напр.,м/с)
 
Видим.   Явления Облачность Т
(С)
Тd
(С)
f
(%)
Тe
(С)
Тes
(С)
Комфортность P
(гПа)
Po
(гПа)
Тmin
(С)
Tmax
(С)
R
(мм)
R24
(мм)
S
(см)
03 17.02 З 4-12
{12}
50 км 10/0 2000 м
[Ac lent Cs]
-0.3 -14.6 33 -5 -4 1019.3 976.7
06 17.02 З 3
{12}
50 км 10/5 1000 м
[Cu hum Ac lent Cs]
+2.1 -12.3 34 -1 -0 1017.6 975.4
09 17.02 З 2
{12}
50 км 10/0
[Cs]
+2.2 -11.2 36 0 +1 1015.9 973.7
12 17.02 штиль 0 20 км 5/0
[Ci fib]
-4.1 -11.2 58 -5 -5 1015.5 972.4 +2.5
15 17.02 С 1 4000 м дымка ясно -10.6 -13.8 77 -13 -13 1015.7 971.6
18 17.02 С 1 20 км 8/0
[Ci fib]
-14.3 -16.8 81 -17 -17 1015.3 970.6
21 17.02 С 2 20 км 8/0
[Ci fib]
-17.2 -19.3 84 -23 -23 1014.6 969.4
00 18.02 С 1 20 км 8/0
[Ci fib]
-19.1 -20.9 86 -22 -22 1014.2 968.7 -19.1 8
03 18.02 штиль 0 20 км 4/0
[Ci fib]
-12.8 -17.0 71 -13 -11 1013.4 969.1 -19.7
06 18.02 штиль 0 20 км 9/3 1000 м
[Sc Ci fib]
-2.0 -13.5 41 -2 +1 1009.7 967.2
09 18.02 Ю 1 50 км 9/5 1000 м
[Sc Ac lent]
+1.2 -11.9 37 0 +1 1008.4 966.4
12 18.02 штиль 0 20 км 10/0 2000 м
[As op]
-4.8 -10.5 64 -5 -5 1010.2 967.3 +3.6
15 18.02 В 1 20 км 8/0
[Cs]
-6.0 -11.3 66 -8 -8 1010.2 967.1
18 18.02 С 1 20 км 10/0
[Ci fib]
-5.6 -10.6 68 -8 -8 1010.4 967.3
21 18.02 СЗ 1 20 км 10/0
[Ci fib]
-4.6 -9.8 67 -7 -7 1011.7 968.7
00 19.02 Ю 1 20 км 10/4 1000 м
[Sc Ac As]
-2.0 -8.9 59 -4 -4 1012.9 970.3 -6.6 8
03 19.02 ЮЗ 2 20 км 8/4 1000 м
[Sc Ac As]
+4.1 -10.4 34 +2 +3 1013.7 972.0
06 19.02 З 5
{10}
20 км 4/3 1000 м
[Sc Ac lent]
+4.6 -10.0 34 +1 +2 1014.8 973.1
09 19.02 З 3
{10}
50 км 8/8 1000 м
[Sc]
+4.2 -8.1 40 +1 +2 1016.3 974.5
12 19.02 ЮЗ 2 20 км 6/6 1000 м
[Sc]
+0.8 -8.0 52 -2 -2 1019.0 976.5 +5.4
15 19.02 С 1 20 км 10/0
[As op]
-4.3 -8.6 72 -6 -6 1021.2 977.9
18 19.02 штиль 0 20 км 10/4 1000 м
[Sc As op]
-6.5 -9.6 79 -7 -7 1022.3 978.6
21 19.02 штиль 0 20 км 10/5 1000 м
[Sc As op]
-6.8 -9.8 79 -8 -8 1023.1 979.3
00 20.02 штиль 0 20 км 10/0 2000 м
[As op]
-7.4 -9.9 82 -8 -8 1024.3 980.3 -7.7 7
03 20.02 штиль 0 20 км 6/0
[Cc]
-3.0 -9.3 62 -4 -2 1024.3 981.0 -8.8
06 20.02 Ю 1 20 км 4/0
[Cs]
+3.3 -7.1 46 +3 +7 1022.8 980.6
09 20.02 С 1 50 км 4/0
[Cs]
+6.3 -8.6 34 +6 +7 1021.7 980.0
12 20.02 штиль 0 20 км 6/0
[Cs]
-2.8 -7.5 70 -4 -4 1023.6 980.4 +6.9
15 20.02 штиль 0 20 км ясно -8.1 -10.3 84 -9 -9 1024.2 980.1
18 20.02 С 1 20 км 6/6 1000 м
[Sc]
-10.8 -12.4 88 -13 -13 1024.0 979.5
21 20.02 С 1 20 км ясно -12.4 -13.9 89 -15 -15 1023.8 979.0
00 21.02 штиль 0 20 км 10/3 1000 м
[Sc Cs]
-14.7 -16.1 89 -15 -15 1023.7 978.5 -14.8 6
03 21.02 штиль 0 20 км 10/0
[Cs]
-10.8 -13.5 80 -11 -9 1022.9 978.4 -15.1
06 21.02 С 1 50 км 10/0
[Cs]
+1.9 -8.4 46 +1 +5 1019.8 977.5
09 21.02 Ю 1 50 км 10/0
[Cs]
+3.5 -6.5 48 +3 +4 1019.1 977.0
12 21.02 С 1 20 км 6/0
[Cs]
-3.1 -7.7 71 -5 -5 1021.4 978.2 +4.6
15 21.02 С 1 20 км 8/3 1000 м
[Sc Cs]
-6.3 -9.2 80 -9 -9 1024.1 980.3
18 21.02 СЗ 4 20 км 10/10 1200 м
[Sc]
-0.5 -3.6 80 -6 -6 1026.3 983.3
21 21.02 З 2 20 км {ливн. осадки, метель} 10/0
[As op]
-1.0 -4.5 77 -5 -5 1028.7 985.6
00 22.02 СЗ 3
{11}
20 км {ливн. осадки, метель} 8/4 1000 м
[Sc Ac lent]
-2.3 -6.5 73 -7 -7 1031.1 987.7 -6.7 0.3
03 22.02 З 3 20 км {ливн. осадки, метель} 6/6 600 м
[Cb cap]
-3.2 -9.3 63 -8 -7 1034.3 990.6
06 22.02 З 5
{14}
20 км позёмок {ливн. осадки} 4/4 600 м
[Cb cap]
-1.5 -12.8 42 -7 -6 1034.5 991.0
09 22.02 З 3 50 км позёмок 8/4 600 м
[Cb cap Cs]
-1.5 -13.2 40 -6 -5 1035.0 991.5
12 22.02 З 3 20 км {метель} 10/4 1000 м
[Sc Cs]
-3.5 -14.2 43 -8 -8 1036.5 992.6 -1.1 0.0
15 22.02 З 2 20 км ясно -5.0 -13.6 51 -9 -9 1036.1 992.0
18 22.02 ЮЗ 2 20 км 10/0
[As trans]
-4.9 -13.0 53 -9 -9 1034.9 990.9
21 22.02 З 4
{10}
20 км позёмок 10/0 2000 м
[As trans]
-3.6 -12.4 50 -9 -9 1034.0 990.2
00 23.02 СЗ 1
{10}
20 км {метель} 10/0 2000 м
[Ac As]
-4.7 -11.5 59 -7 -7 1034.4 990.4 -5.2 5
03 23.02 З 2 4000 м слаб. снег 10/0
[As op]
-3.0 -9.4 61 -7 -6 1034.0 990.3
06 23.02 СЗ 5
{10}
50 км {снег} 9/4 1000 м
[Sc Ac cast]
-0.8 -11.5 44 -6 -6 1032.6 989.3
09 23.02 СЗ 3
{12}
50 км 10/3 1000 м
[Sc As op]
+0.6 -11.5 40 -3 -3 1031.9 988.9
12 23.02 З 2 20 км 9/3 1000 м
[Sc Ac lent]
-1.1 -11.7 44 -4 -4 1032.1 988.8 +0.8 0.0
15 23.02 З 3 20 км 8/4 1000 м
[Sc Cs]
-0.9 -9.3 53 -5 -5 1031.6 988.4
18 23.02 штиль 0 20 км 6/0
[Cs]
-4.0 -10.8 59 -5 -5 1031.0 987.3
21 23.02 штиль 0 20 км 9/5 1000 м
[Sc Cs]
-5.7 -10.9 67 -6 -6 1030.2 986.3
00 24.02 штиль 0 20 км 10/10 1200 м
[Sc]
-5.9 -10.3 71 -7 -7 1029.2 985.3 -6.2 5

 

Местоположение метеостанции Агинское (Красноярский край, Россия): широта 55.25 долгота 94.88 высота над уровнем моря 337 м.

В архиве по умолчанию представлена погода в Агинском за последнюю неделю. Архивные данные за месяц целиком и за предыдущие месяцы, начиная с января 2011 года, Вы можете получить, выбрав интересующий диапазон дат из раскрывающегося списка и нажав кнопку "Ввод!".


*Определитесь, кто Вы:
робот инопланетянин человек

Внимание! Время в таблицах - всемирное. Для получения местного времени необходимо прибавить поправку, которая равна 7 ч.

Смотрите также архив погоды в соседних городах и на ближайших метеорологических станциях:

Погода в Ирбейском (Красноярский край, Россия) (56 км)
Погода в Уяре (Красноярский край, Россия) (70 км)
Погода в Шалинском (Красноярский край, Россия) (88 км)
Погода в Анастасино (Красноярский край, Россия) (96 км)
Погода в Солянке (Красноярский край, Россия) (105 км)
Погода в Канске (Красноярский край, Россия) (116 км)
Погода в Щетинкино (Красноярский край, Россия) (123 км)
Погода в Артемовске (Красноярский край, Россия) (126 км)
Погода в Железногорске (Красноярский край, Россия) (140 км)
Погода в Роевом Ручье (Красноярский край, Россия) (157 км)

Пояснения к столбцам:

Ветер - указаны скорость ветра в м/с - средняя за 10 мин, порывы в срок и между сроками (в фигурных скобках) и направление, откуда дует ветер: С - северный, СВ - северо-восточный, В - восточный, ЮВ - юго-восточный, Ю - южный, ЮЗ - юго-западный, З - западный, СЗ - северо-западный.
Видимость - горизонтальная дальность видимости в метрах или километрах. При видимости от 1 до 10 км при отсутствии осадков обычно наблюдается дымка, при ухудшении видимости до 1 км и менее - туман. В сухую погоду видимость может ухудшаться дымом, пылью или мглою.
Явления - указаны атмосферные явления, наблюдавшиеся в срок или в последний час перед сроком; фигурными скобками обозначены явления, наблюдавшиеся между сроками (за 1-3 часа до срока); квадратными скобками обозначены град или гололедные отложения с указанием их диаметра в мм.
Облачность - указаны через наклонную черту общая и нижняя облачность в баллах и высота нижней границы облаков в метрах; квадратными скобками обозначены формы облаков: Ci - перистые, Cs - перисто-слоистые, Cc - перисто-кучевые, Ac - высококучевые, As - высокослоистые, Sc - слоисто-кучевые, Ns - слоисто-дождевые, Cu - кучевые, Cb - кучево-дождевые. Подробнее классификацию облаков см. в Атласе облаков (PDF).
T - Температура воздуха - температура, измеренная на высоте 2 м над землей.
Td - Температура точки росы - температура, при понижении до которой содержащийся в воздухе водяной пар достигнет насыщения.
f - Относительная влажность воздуха - влажноcть воздуха, измеренная на высоте 2 м над землей.
Te - Эффективная температура - температура, которую ощущает одетый по сезону человек в тени. Характеристика душности погоды. При расчете учитывается влияние влажности воздуха и скорости ветра на теплоощущения человека.
Tes - Эффективная температура на солнце - температура, которую ощущает человек, с поправкой на солнечный нагрев. Характеристика знойности погоды. Зависит от высоты солнца над горизонтом, облачности и скорости ветра. Ночью, в пасмурную погоду, а также при ветре 12 м/с и более поправка равна нулю.
P - Атмосферное давление - приведенное к уровню моря атмосферное давление.
Po - Атмосферное давление - измеренное на уровне метеостанции атмосферное давление.
Tmin - Минимальная температура - минимум температуры воздуха на высоте 2 м над землей.
Tmax - Максимальная температура - максимум температуры воздуха на высоте 2 м над землей.
R - Количество осадков - Количество выпавших осадков за период времени, мм. При наведении курсора мыши на число - период времени, за который выпало указанное количество осадков.
R24 - Количество осадков - Количество выпавших осадков за 24 часа, мм.
S - Снежный покров - Высота снежного покрова, см. При наведении курсора мыши на число - состояние снежного покрова и степень покрытия местности в баллах.